Location: Aldenham
(51.6667°N, 0.3500°W)
Time: 08:12:13
(UTC+00:00)

Explorer 7 - Pass Details

Date: 23 February 2026
Orbit: 430 x 541 km, 50.2° (Epoch: 12 March)

Event Time Altitude Azimuth Distance (km) Brightness Sun altitude
Rises 15:57:30 0° 268° (W) 2,439 11.2 12.3°
Reaches altitude 10° 15:59:36 10° 266° (W) 1,583 10.4 12.0°
Maximum altitude 16:03:09 71° 183° (S) 492 7.0 11.6°
Drops below altitude 10° 16:06:51 10° 99° (E) 1,644 8.8 11.1°
Sets 16:09:04 0° 97° (E) 2,545 9.7 10.8°
